Location: Avenches
(46.8809°N, 7.0410°E)
Time: 03:00:22
(UTC+00:00)

X-37B - Pass Details

Date: 12 March 2021
Orbit: 380 x 394 km, 45.0° (Epoch: 07 April)

Event Time Altitude Azimuth Distance (km) Brightness Sun altitude
Rises 19:52:38 0° 245° (WSW) 2,270 5.1 -24.1°
Reaches altitude 10° 19:54:45 10° 239° (WSW) 1,420 3.8 -24.4°
Enters shadow 19:55:24 15° 234° (SW) 1,166 3.3 -24.5°
